Weather in Planken

Liechtenstein     47°11′08″N   9°32′44″E
temp.,
°C
wind,
m/s
gust,
m/s
humid.,
%
clouds,
%
prec.,
mm/h
press.,
hPa
HPBL,
m
8 may, sat
sat823:000s3395100 0.0 102455
02:000s3494100 0.0 102370
05:00−1s349370 0.0 102388
08:00+2s348391 0.0 1022155
11:00+12s12415 0.0 1017886
14:00+16nw1233100 0.0 10161757
17:00+16n223977 0.0 10151168
20:00+10se1175100 0.0 101611
9 may, sun
sun923:00+7s3581100 0.0 101874
02:00+5s45845 0.0 101892
05:00+5s4683100 0.0 1017101
08:00+9s466912 0.0 1014176
11:00+18s344450 0.0 1011793
14:00+21s353678 0.0 10091567
17:00+21sse463847 0.0 10081634
20:00+14s457075 0.0 1009120
10 may, mon
mon1023:00+9s578010 0.0 1011169
02:00+9s588199 0.0 1010226
05:00+8s59811 0.0 1010235
08:00+12s58700 0.0 1008420
11:00+18s5849100 0.0 10061184
14:00+19s464898 0.0 10091360
17:00+18ssw3552100 0.0 10081220
20:00+12nnw028699 0.0 100983
11 may, tue
tue1123:00+8ssw23937 0.0 101180
02:00+7w019666 0.1 101330
05:00+7ne1298100 0.3 1012169
08:00+7ne0196100 0.7 1011152
11:00+10nne1186100 0.1 1008392
14:00+11ese1281100 0.6 1006585
17:00+11nw1183100 0.6 1006506
20:00+9nw1297100 1.2 1007102
12 may, wed
wed1223:00+7nw2298100 0.9 1009152
02:00+6wnw1297100 8.1 1011234
05:00+4wsw1297100 6.8 1012229
08:00+4sw2397100 13.2 1014419
11:00+5wsw1396100 4.4 1014685
14:00+4wnw1396100 9.6 1015663
17:00+3wsw1298100 7.3 1015490
20:00+4ssw1398100 12.8 1015217